This is the latest recevied weather packets stored in our database for station/object K4DFD-13. If no packets are shown the sender has not sent any weather packets the latest 10 day(s).
| Time | Temp. | Humidity | Pressure | Rain* | Wind** | Luminosity | Snow |
|---|---|---|---|---|---|---|---|
| 1777745347 | 13.33° C | 43% | 1012.9 hPa | 0 mm | - | - | - |
| 1777745047 | 13.33° C | 46% | 1012.9 hPa | 0 mm | - | - | - |
| 1777744746 | 13.33° C | 45% | 1013 hPa | 0 mm | - | - | - |
| 1777744446 | 13.33° C | 45% | 1013 hPa | 0 mm | - | - | - |
| 1777744146 | 13.33° C | 44% | 1013 hPa | 0 mm | - | - | - |
| 1777743845 | 13.33° C | 45% | 1013.1 hPa | 0 mm | - | - | - |
| 1777743545 | 13.33° C | 47% | 1012.9 hPa | 0 mm | - | - | - |
| 1777743244 | 12.78° C | 45% | 1012.9 hPa | 0 mm | - | - | - |
| 1777742944 | 12.78° C | 47% | 1013.6 hPa | 0 mm | - | - | - |
| 1777742643 | 12.22° C | 45% | 1013.1 hPa | 0 mm | - | - | - |
| 1777742343 | 12.22° C | 46% | 1013.2 hPa | 0 mm | - | - | - |
| 1777742042 | 12.22° C | 47% | 1013.4 hPa | 0 mm | - | - | - |
| 1777741742 | 11.67° C | 48% | 1013.6 hPa | 0 mm | - | - | - |
| 1777741442 | 11.67° C | 48% | 1013.6 hPa | 0 mm | - | - | - |
| 1777741142 | 11.67° C | 49% | 1013.8 hPa | 0 mm | - | - | - |
| 1777740841 | 11.67° C | 50% | 1013.9 hPa | 0 mm | - | - | - |
| 1777740541 | 11.67° C | 49% | 1013.9 hPa | 0 mm | - | - | - |
| 1777740240 | 11.11° C | 52% | 1014.1 hPa | 0 mm | - | - | - |
| 1777739940 | 11.67° C | 49% | 1014 hPa | 0 mm | - | - | - |
| 1777739640 | 11.67° C | 50% | 1014 hPa | 0 mm | - | - | - |
| 1777739339 | 11.67° C | 51% | 1014.1 hPa | 0 mm | - | - | - |
| 1777739039 | 11.11° C | 50% | 1014.3 hPa | 0 mm | - | - | - |
| 1777738739 | 11.11° C | 50% | 1014.4 hPa | 0 mm | - | - | - |
| 1777738428 | 11.11° C | 50% | 1014.4 hPa | 0 mm | - | - | - |
| 1777738128 | 11.11° C | 51% | 1014.6 hPa | 0 mm | - | - | - |
* Rain latest hour (hover to see other rain measurements)
** Current wind speed in m/s (hover to see current wind gust speed)